SCP
0 0 0 0 0 0 0 0 0 0 0 0 0 0 0 0 0 0 0 0 0 0 0 0 0 0 1 1 1 1 1 1 1 1 1 1 1 1
0 0 0 0 0 0 0 0 0 0 0 0 0 0 0 0 0 0 0 0 0 0 0 0 0 0 0 1 1 1 1 1 1 1 1 1 1 1
0 0 0 0 0 0 0 0 0 0 0 0 0 0 0 0 0 0 0 0 0 0 0 0 0 0 0 0 0 0 0 0 1 1 1 1 1 1
0 0 0 0 0 0 0 0 0 0 0 0 0 0 0 0 0 0 0 0 0 0 0 0 0 0 0 0 0 0 0 0 0 0 0 0 0 1
0 0 0 0 0 0 0 0 0 0 0 0 0 0 0 0 0 0 0 0 0 0 0 0 0 0 0 0 0 0 0 0 0 0 0 0 0 0
0 0 0 0 0 0 0 0 0 0 0 0 0 0 0 0 0 0 0 0 0 0 0 0 0 0 0 0 0 0 0 0 0 0 0 0 0 0
0 0 0 0 0 0 0 0 0 0 0 0 0 0 0 0 0 0 0 0 0 0 0 0 0 0 0 0 0 0 0 0 0 0 0 0 0 0
0 0 0 0 0 0 0 0 0 0 0 0 0 0 0 0 0 0 0 0 0 0 0 0 0 0 0 0 0 0 0 0 0 0 0 0 0 0
0 0 0 0 0 0 0 0 0 0 0 0 0 0 0 0 0 0 0 0 0 0 0 0 0 0 0 0 0 0 0 0 0 0 0 0 0 0
0 0 0 0 0 0 0 0 0 0 0 0 0 0 0 0 0 0 0 0 0 0 0 0 0 0 0 0 0 0 0 0 0 0 0 0 0 0
0 0 0 0 0 0 0 0 0 0 0 0 0 0 0 0 0 0 0 0 0 0 0 0 0 0 0 0 0 0 0 0 0 0 0 0 0 0
0 0 0 0 0 0 0 0 0 0 0 0 0 0 0 0 0 0 0 0 0 0 0 0 0 0 0 0 0 0 0 0 0 0 0 0 0 0
0 0 0 0 0 0 0 0 0 0 0 0 0 0 0 0 0 0 0 0 0 0 0 0 0 0 0 0 0 0 0 0 0 0 0 0 0 0
0 0 0 0 0 0 0 0 0 0 0 0 0 0 0 0 0 0 0 0 0 0 0 0 0 0 0 0 0 0 0 0 0 0 0 0 0 0
0 0 0 0 0 0 0 0 0 0 0 0 0 0 0 0 0 0 0 0 0 0 0 0 0 0 0 0 0 0 0 0 0 0 0 0 0 0
0 0 0 0 0 0 0 0 0 0 0 0 0 0 0 0 0 0 0 0 0 0 0 0 0 0 0 0 0 0 0 0 0 0 0 0 0 0
0 0 0 0 0 0 0 0 0 0 0 0 0 0 0 0 0 0 0 0 0 0 0 0 0 0 0 0 0 0 0 0 0 0 0 0 0 0
0 0 0 0 0 0 0 0 0 0 0 0 0 0 0 0 0 0 0 0 0 0 0 0 0 0 0 0 0 0 0 0 0 0 0 0 0 0
0 0 0 0 0 0 0 0 0 0 0 0 0 0 0 0 0 0 0 0 0 0 0 0 0 0 0 0 0 0 0 0 0 0 0 0 0 0
0 0 0 0 0 0 0 0 0 0 0 0 0 0 0 0 0 0 0 0 0 0 0 0 0 0 0 0 0 0 0 0 0 0 0 0 0 0
0 0 0 0 0 0 0 0 0 0 0 0 0 0 0 0 0 0 0 0 0 0 0 0 0 0 0 0 0 0 0 0 0 0 0 0 0 0
0 0 0 0 0 0 0 0 0 0 0 0 0 0 0 0 0 0 0 0 0 0 0 0 0 0 0 0 0 0 0 0 0 0 0 0 0 0
0 0 0 0 0 0 0 0 0 0 0 0 0 0 0 0 0 0 0 0 0 0 0 0 0 0 0 0 0 0 0 0 0 0 0 0 0 0
Wind_Speed
4 4 3 3 3 3 3 3 3 3 4 4 3 4 3 3 5 3 3 6 7 8 9 10 11 12 13 15 16 18 19 20 21 21 21 22 23 23
4 4 4 3 4 3 3 3 4 4 4 4 4 4 4 4 6 4 5 8 8 9 10 11 12 12 13 14 14 15 17 19 20 21 21 21 21 21
5 5 6 5 4 4 3 3 3 3 4 5 3 3 4 5 5 4 4 5 5 10 11 12 13 13 14 14 14 15 16 18 20 21 21 21 21 22
6 5 6 5 5 4 4 4 4 4 4 6 4 3 4 5 5 5 5 5 5 9 11 12 13 13 14 14 15 15 16 17 18 19 21 21 22 22
6 6 6 5 6 5 5 5 5 5 4 4 5 3 3 4 4 5 5 4 5 7 9 11 12 13 13 14 15 15 15 16 17 18 19 20 20 21
6 6 6 6 7 6 6 6 5 5 4 4 4 4 4 4 2 3 4 3 4 4 5 5 7 9 11 13 14 15 16 16 17 17 18 18 19 19
5 6 6 8 10 8 6 6 5 5 4 4 4 3 4 3 3 3 3 4 4 3 2 3 3 3 5 8 12 14 15 16 17 17 18 18 18 19
6 6 6 8 10 11 12 11 9 7 6 5 5 5 6 5 4 3 3 2 4 3 1 3 2 4 4 4 8 11 14 15 16 17 18 18 18 18
6 6 6 7 8 6 8 10 10 12 12 8 7 8 7 6 5 4 4 4 5 4 2 4 3 4 4 5 9 10 12 14 15 17 17 18 18 18
7 7 7 8 8 7 7 7 7 8 9 8 8 9 9 7 7 7 6 5 5 4 3 4 4 4 4 4 8 10 11 12 14 15 16 17 17 18
8 7 7 8 11 11 7 7 8 7 9 12 12 12 13 13 9 4 4 4 5 4 3 4 4 4 4 4 6 9 10 11 12 14 15 15 16 15
6 7 10 10 10 9 6 6 7 8 6 6 6 7 8 9 11 8 7 6 4 4 4 4 4 2 3 3 3 3 4 7 10 12 13 14 14 10
6 6 6 10 11 10 8 6 10 8 5 5 6 6 5 5 6 7 8 7 7 7 5 4 3 3 3 3 2 3 3 3 3 5 10 13 14 13
7 6 7 10 11 10 8 9 13 9 4 4 5 6 6 7 7 7 8 9 10 10 8 6 5 4 4 3 3 2 2 3 3 4 4 8 11 14
7 10 10 11 10 8 11 14 10 6 5 6 7 8 7 7 6 5 6 7 8 9 9 8 7 6 5 5 4 3 3 3 4 4 4 5 6 7
7 7 9 10 9 10 9 8 6 6 7 8 7 7 6 5 5 5 5 4 4 5 6 8 9 9 7 7 6 5 4 3 3 4 4 4 5 6
3 2 3 3 4 5 5 6 6 6 7 7 7 7 6 6 6 5 4 4 5 5 5 4 6 7 8 6 6 6 5 5 4 4 4 4 5 6
5 3 5 5 6 7 6 6 6 6 7 7 7 7 7 7 7 5 5 5 6 6 6 4 3 3 3 5 8 7 6 5 4 5 4 5 5 5
5 6 6 7 7 7 7 7 7 7 6 6 7 7 7 7 6 6 6 6 6 6 6 5 5 6 7 7 5 9 7 5 5 5 6 5 5 5
6 7 8 7 7 7 7 7 7 6 5 6 7 7 7 7 6 7 6 7 7 6 5 5 6 7 8 7 4 4 10 7 6 6 5 3 1 2
8 8 8 8 7 7 7 6 6 6 6 6 6 7 6 6 7 7 7 9 8 6 7 7 8 10 5 3 3 3 3 7 6 5 5 4 3 3
7 7 7 7 7 6 6 6 6 6 6 6 6 6 6 6 7 8 7 7 7 7 8 6 4 5 5 6 6 5 4 3 2 4 4 2 4 6
7 7 6 6 6 5 5 6 6 6 5 5 5 5 5 6 6 6 7 7 6 7 6 5 4 4 6 6 6 5 6 6 4 3 2 6 1 2
Wind_Direction
247 248 241 247 238 226 209 191 200 271 287 280 288 298 304 292 287 286 277 268 258 251 246 244 243 239 235 231 226 224 222 219 216 214 215 214 214 216
243 247 249 246 248 243 233 220 197 207 253 263 260 275 295 299 293 283 269 269 261 254 248 246 245 243 239 234 230 228 224 220 217 214 213 213 212 213
257 248 251 248 246 248 243 238 229 206 245 269 256 272 282 289 296 289 276 265 261 255 250 246 242 240 238 236 233 230 227 223 218 216 214 212 211 212
251 250 256 256 248 245 240 241 239 226 228 264 274 274 271 275 277 282 279 269 257 259 254 249 244 239 237 235 234 232 229 225 220 217 215 213 212 213
240 241 249 251 254 250 244 243 242 245 223 238 263 261 269 274 286 288 285 282 274 267 259 253 248 244 240 238 236 233 230 227 222 218 216 214 213 213
240 239 242 240 244 248 249 244 241 244 239 239 255 263 266 271 271 280 296 292 288 284 270 261 256 253 249 243 239 235 231 227 224 221 218 215 214 213
248 246 245 248 248 246 245 238 235 236 237 238 249 259 263 269 263 257 271 286 285 266 277 274 266 264 258 251 244 238 232 227 224 221 219 217 216 215
247 253 258 262 264 263 263 256 236 228 229 232 240 240 249 244 246 250 259 281 290 279 268 283 269 265 261 249 248 241 233 228 223 220 219 217 216 215
240 249 262 263 263 260 266 270 264 251 234 225 231 238 243 236 232 247 243 239 246 253 256 275 269 263 259 256 254 247 240 232 226 222 219 216 216 215
238 239 245 258 262 254 256 262 259 258 249 237 229 237 239 235 223 230 239 251 258 253 210 252 261 259 265 258 256 248 244 237 230 224 219 216 215 214
245 244 241 249 259 259 253 256 264 268 264 251 239 241 244 244 234 229 236 239 262 261 212 220 249 258 262 258 255 250 246 241 233 226 220 217 215 212
252 250 247 249 257 259 239 238 253 262 266 274 269 264 256 253 244 224 219 224 238 257 227 205 234 230 269 258 248 248 242 239 235 230 222 215 207 204
245 248 246 250 254 254 238 226 241 250 256 256 262 265 264 255 246 231 220 218 223 236 226 192 214 210 230 273 280 249 229 225 222 229 223 213 203 199
237 241 244 250 251 252 250 244 250 256 249 251 257 260 259 257 251 240 230 227 227 232 225 199 210 213 222 243 260 266 242 225 215 221 215 205 208 208
236 240 245 253 258 257 253 253 254 244 236 244 251 254 250 249 249 250 247 237 237 239 234 212 212 217 214 228 240 241 250 243 216 214 210 205 200 196
241 251 257 260 257 254 258 258 242 230 229 240 248 253 251 247 246 238 241 238 241 252 239 222 216 213 222 226 227 233 222 226 217 210 209 212 202 201
208 238 249 255 257 257 255 252 244 236 236 240 244 250 250 247 247 235 227 226 229 242 250 237 224 219 216 208 220 229 226 228 221 203 204 219 217 206
173 225 242 244 247 252 255 258 249 241 239 237 239 241 244 244 247 240 225 224 231 236 237 230 210 206 225 238 217 221 222 223 216 202 202 215 221 207
196 231 239 244 246 246 247 250 253 249 240 236 238 240 240 241 239 238 231 229 233 234 233 219 203 202 220 235 235 209 208 211 204 207 208 210 216 202
221 231 238 241 241 243 244 246 251 253 245 240 241 240 237 235 235 235 231 228 231 232 234 222 211 209 216 222 217 217 204 200 201 210 206 194 193 163
224 231 237 239 241 241 242 244 246 248 247 242 241 241 237 232 236 235 232 231 227 228 230 231 227 215 208 182 200 217 208 204 201 196 184 177 179 178
233 234 237 237 240 241 242 245 248 248 248 245 244 243 237 231 234 235 231 227 225 225 231 235 221 195 188 202 213 208 192 163 124 99 101 139 178 187
231 234 237 238 240 242 243 247 249 251 250 249 249 247 240 235 234 232 231 227 224 224 224 223 209 197 203 204 202 195 184 175 164 143 68 16 21 144